Change the Weather History Date:

Thursday, November 21, 2013

  Actual Average Record
Temperature  
Mean Temperature 64 °F -  
Max Temperature 73 °F 67 °F 81 °F (2011)
Min Temperature 55 °F 48 °F 33 °F (2014)
Degree Days  
Heating Degree Days 1    
Growing Degree Days 14 (Base 50)    
Moisture  
Dew Point 56 °F    
Average Humidity 81    
Maximum Humidity 94    
Minimum Humidity 66    
Precipitation  
Precipitation 0.00 in - - ()
Sea Level Pressure  
Sea Level Pressure 30.26 in    
Wind  
Wind Speed 8 mph (NE)    
Max Wind Speed 10 mph    
Max Gust Speed -    
Visibility 10 miles    
Events Rain    
Averages and records for this station are not official NWS values.
T = Trace of Precipitation, MM = Missing Value Source: NWS Daily Summary

Daily Weather History Graph

Daily Weather History Graph

Search for Another Location

Airport or City:

Trip Planner

Search our weather history database for the weather conditions in past years. The results will help you decide how hot, cold, wet, or windy it might be!

Date:

Astronomy

Nov. 21, 2013 Rise Set
Actual Time 7:04 AM EST 5:32 PM EST
Civil Twilight 6:39 AM EST 5:58 PM EST
Nautical Twilight 6:09 AM EST 6:27 PM EST
Astronomical Twilight 5:40 AM EST 6:56 PM EST
Moon 9:05 PM EST (11/21) 10:12 AM EST (11/21)
Length of Visible Light 11h 19m
Length of Day
10h 27m
Waning Gibbous, 85% of the Moon is Illuminated
Nov 21
Waning Gibbous
Nov 25
Last Quarter
Dec 2
New
Dec 9
First Quarter
Dec 17
Full

Hourly Weather History & Observations

Time (EST) Temp. Dew Point Humidity Pressure Visibility Wind Dir Wind Speed Gust Speed Precip Events Conditions
12:02 AM 55.4 °F 50.0 °F 82% 30.23 in 10.0 mi NE 9.2 mph - N/A Rain Light Rain
12:11 AM 55.4 °F 50.0 °F 82% 30.23 in 10.0 mi NE 6.9 mph - N/A   Overcast
12:33 AM 55.4 °F 50.0 °F 82% 30.23 in 10.0 mi NE 9.2 mph - N/A   Overcast
12:58 AM 56.1 °F 49.6 °F 79% 30.23 in 10.0 mi NE 8.1 mph - 0.00 in   Overcast
1:58 AM 55.9 °F 50.0 °F 80% 30.23 in 10.0 mi NE 8.1 mph - N/A   Overcast
2:58 AM 56.1 °F 50.2 °F 80% 30.23 in 10.0 mi NE 6.9 mph - N/A   Overcast
3:58 AM 55.6 °F 49.8 °F 81% 30.23 in 10.0 mi NE 8.1 mph - N/A   Overcast
4:58 AM 55.4 °F 49.8 °F 81% 30.25 in 10.0 mi NNE 9.2 mph - N/A   Overcast
5:58 AM 55.6 °F 49.8 °F 81% 30.26 in 10.0 mi NE 6.9 mph - N/A   Overcast
6:58 AM 55.8 °F 50.4 °F 82% 30.26 in 10.0 mi NE 6.9 mph - N/A   Overcast
7:58 AM 56.5 °F 51.4 °F 83% 30.28 in 10.0 mi NE 8.1 mph - N/A   Overcast
8:08 AM 57.2 °F 51.8 °F 82% 30.28 in 10.0 mi NE 9.2 mph - N/A   Overcast
8:24 AM 57.2 °F 51.8 °F 82% 30.28 in 10.0 mi NE 8.1 mph - N/A   Overcast
8:28 AM 57.2 °F 51.8 °F 82% 30.28 in 10.0 mi NE 10.4 mph - N/A   Overcast
8:58 AM 57.7 °F 52.3 °F 82% 30.29 in 10.0 mi NE 8.1 mph - N/A   Overcast
9:34 AM 60.8 °F 53.6 °F 77% 30.29 in 10.0 mi NE 8.1 mph - N/A   Mostly Cloudy
9:58 AM 61.9 °F 54.3 °F 76% 30.30 in 10.0 mi NE 9.2 mph - N/A   Mostly Cloudy
10:58 AM 64.6 °F 55.6 °F 73% 30.30 in 10.0 mi NNE 10.4 mph - N/A   Overcast
11:58 AM 67.6 °F 57.2 °F 69% 30.28 in 10.0 mi ENE 8.1 mph - N/A   Overcast
12:58 PM 70.2 °F 58.5 °F 66% 30.26 in 10.0 mi NE 9.2 mph - N/A   Overcast
1:58 PM 72.5 °F 60.6 °F 66% 30.24 in 10.0 mi NE 6.9 mph - N/A   Overcast
2:58 PM 73.4 °F 62.1 °F 68% 30.23 in 10.0 mi East 9.2 mph - N/A   Overcast
3:39 PM 73.4 °F 62.6 °F 69% 30.23 in 10.0 mi East 8.1 mph - N/A   Overcast
3:45 PM 73.4 °F 62.6 °F 69% 30.23 in 10.0 mi East 5.8 mph - N/A Rain Light Rain
3:46 PM 73.4 °F 62.6 °F 69% 30.23 in 10.0 mi East 6.9 mph - N/A   Overcast
3:58 PM 72.7 °F 62.4 °F 70% 30.23 in 10.0 mi East 8.1 mph - 0.00 in   Overcast
4:58 PM 71.6 °F 62.2 °F 72% 30.24 in 10.0 mi ENE 8.1 mph - N/A   Overcast
5:58 PM 67.6 °F 61.9 °F 82% 30.25 in 10.0 mi ENE 3.5 mph - N/A   Clear
6:58 PM 66.4 °F 61.9 °F 85% 30.27 in 10.0 mi NE 3.5 mph - N/A   Mostly Cloudy
7:58 PM 65.1 °F 61.3 °F 88% 30.28 in 10.0 mi NE 4.6 mph - N/A   Overcast
8:58 PM 62.6 °F 59.7 °F 90% 30.28 in 10.0 mi NE 8.1 mph - N/A   Clear
9:40 PM 60.8 °F 59.0 °F 94% 30.28 in 10.0 mi NE 8.1 mph - N/A   Mostly Cloudy
9:58 PM 61.9 °F 59.0 °F 90% 30.29 in 10.0 mi ENE 6.9 mph - N/A   Overcast
10:18 PM 62.6 °F 59.0 °F 88% 30.28 in 10.0 mi ENE 5.8 mph - N/A   Overcast
10:24 PM 62.6 °F 59.0 °F 88% 30.28 in 10.0 mi ENE 6.9 mph - N/A   Overcast
10:58 PM 62.1 °F 59.2 °F 90% 30.30 in 10.0 mi NE 5.8 mph - N/A   Overcast
11:03 PM 62.6 °F 59.0 °F 88% 30.29 in 10.0 mi ENE 5.8 mph - N/A   Overcast
11:09 PM 62.6 °F 59.0 °F 88% 30.29 in 10.0 mi ENE 5.8 mph - N/A   Overcast
11:25 PM 62.6 °F 60.8 °F 94% 30.29 in 10.0 mi Variable 3.5 mph - N/A   Overcast
11:39 PM 62.6 °F 60.8 °F 94% 30.29 in 10.0 mi ENE 5.8 mph - N/A   Overcast
11:58 PM 62.2 °F 60.3 °F 93% 30.30 in 10.0 mi ENE 5.8 mph - N/A   Overcast